sat.trackr.live / text

‹ back to catalog

STARLINK-30711

NORAD 57940 · 2023-148F

PAYLOAD ACTIVE UNKNOWN

§ Identity

Operator
Country
US
Launch date
2023-09-25
Launch site
AFWTR
Launch vehicle
Mass (kg)
RCS (m²)

Purposes: comms

External: N2YO · Heavens-Above · Gunter

§ Orbital elements

Epoch: 2026-09-20T05:45:08.946432Z

Period
93.85 min
Inclination
53.1610°
Eccentricity
0.0001361
Mean motion
15.34387382 rev/d
Perigee alt
461.8 km
Apogee alt
463.7 km
Semi-major
6,840.9 km
B*
4.8832e-5
RAAN
198.7838°
Arg perigee
84.2040°
Mean anomaly
275.9118°
Rev number
16,823

§ Raw data

STARLINK-307111 57940U 23148F   26263.23968688  .00001273  00000+0  48832-4 0  99932 57940  53.1610 198.7838 0001361  84.2040 275.9118 15.34387382168233

JSON: /api/v1/satellites/57940 · /tle

For live sub-satellite position, see the globe view (requires WebGL).

§ Visibility from observer

Set your observer location to see the next 7 days of passes ≥ 10°. The values pass through the URL so the page stays shareable.

No JS? Fill the form by hand. The geolocation button needs JavaScript.